Regional Weather Roundup
Issued by NWS

Home | Current Version | Previous Version | Graphics & Text | Print | Product List | Glossary On
Versions: 1 2 3 4 5 6 7 8 9 10 11 12 13 14 15 16 17 18 19 20 21 22 23 24 25 26 27 28 29 30 31 32 33 34 35 36 37 38 39 40 41 42 43 44 45 46 47 48 49 50
000
ASUS43 KLMK 250210
RWRKY
KENTUCKY REGIONAL WEATHER ROUNDUP
NATIONAL WEATHER SERVICE LOUISVILLE KY
1000 PM EDT THU MAY 24 2018

NOTE "FAIR" INDICATES FEW OR NO CLOUDS BELOW 12,000 FEET
WITH NO SIGNIFICANT WEATHER AND/OR OBSTRUCTIONS TO VISIBILITY.

KYZ001>023-026-027-061>063-070>075-250300-
WESTERN AND SOUTH CENTRAL KENTUCKY

CITY           SKY/WX    TMP DP  RH WIND       PRES   REMARKS
PADUCAH        FAIR      75  66  73 SE3       30.02S
HENDERSON      NOT AVBL
OWENSBORO      FAIR      77  59  53 E3        30.05R
HOPKINSVILLE   FAIR      77  65  66 CALM      30.04R
BOWLING GREEN  FAIR      76  65  68 CALM      30.05R
GLASGOW        FAIR      70  63  77 CALM      30.06S
$$

KYZ024-025-028>034-038-045-046-053-250300-
NORTH CENTRAL KENTUCKY

CITY           SKY/WX    TMP DP  RH WIND       PRES   REMARKS
LOUISVILLE/SDF FAIR      78  56  46 E3        30.05S
LOUISVILLE/LOU FAIR      74  58  57 NE5       30.07R
FORT KNOX      CLEAR     68  58  71 CALM      30.07R
$$

KYZ035>037-039>044-047>052-055>060-089>105-250300-
NORTHEAST KENTUCKY

CITY           SKY/WX    TMP DP  RH WIND       PRES   REMARKS
LEXINGTON      FAIR      73  56  54 E5        30.09S
COVINGTON      FAIR      71  54  54 S3        30.08S
FRANKFORT      FAIR      68  57  68 CALM      30.07S
$$

KYZ054-064>069-076>088-106>120-250300-
SOUTHEAST KENTUCKY

CITY           SKY/WX    TMP DP  RH WIND       PRES   REMARKS
JACKSON        FAIR      73  58  59 CALM      30.10S
LONDON         FAIR      73  61  65 N3        30.09R
SOMERSET       FAIR      72  61  68 MISG      30.09S
MIDDLESBORO    MOCLDY    73  66  77 CALM      30.10R
MONTICELLO     FAIR      73  65  75 W6        30.09S
$$





USA.gov is the U.S. government's official web portal to all federal, state and local government web resources and services.